Wind_Speed
24 29 49 65 52 62 58 59 40 61 62 58 47 43 45 47 50 50 50 49 48 46 44 42 42 41 41 39 38 36 35 35 35 34 34 35 35 34 33 33 32 33 34
23 30 57 66 42 43 68 56 53 48 59 60 51 46 44 46 50 52 52 53 51 49 48 46 45 45 44 43 41 39 39 39 38 39 39 39 39 39 40 39 39 38 38
27 45 52 62 42 41 64 46 35 59 61 60 61 52 48 45 45 49 52 53 54 54 52 51 50 49 48 46 46 44 42 41 42 42 42 43 43 45 44 43 43 43 43
15 43 54 51 52 43 22 45 45 38 53 52 56 58 52 49 47 47 50 54 56 57 56 55 53 52 51 49 49 48 47 46 45 45 45 45 47 48 48 47 48 48 49
21 30 43 52 30 42 42 22 15 29 33 50 52 59 56 53 51 49 49 50 53 56 58 58 57 56 55 53 52 52 51 51 50 50 50 50 50 51 51 51 53 53 55
19 14 18 30 41 34 33 38 43 36 41 36 36 56 66 65 61 56 55 53 53 55 58 59 60 60 59 58 57 56 56 55 55 54 55 54 54 54 56 57 57 59 59
18 17 8 20 28 38 29 27 25 36 47 35 30 31 44 49 68 69 65 63 61 59 60 62 63 63 63 63 62 62 61 61 60 60 60 60 60 61 62 62 63 63 65
9 10 13 8 9 15 13 11 13 17 27 26 34 31 45 41 43 60 73 68 63 63 63 64 65 66 66 66 65 65 64 64 64 64 65 65 66 66 67 66 68 69 68
1 4 5 7 8 9 13 18 13 14 18 15 22 30 28 35 32 45 54 64 74 69 66 67 67 68 69 68 68 67 67 67 67 67 68 69 69 70 70 70 71 73 70
4 2 2 5 10 14 16 20 20 19 21 23 25 27 33 40 35 31 30 31 37 55 78 75 70 70 70 72 72 70 69 69 70 70 71 70 71 72 72 72 72 72 70
7 5 4 4 5 9 13 16 20 24 29 34 33 35 34 32 36 37 37 35 36 36 39 49 68 77 76 73 72 73 72 72 75 75 73 73 72 75 72 72 71 78 80
20 21 20 19 18 19 21 21 22 25 27 28 31 34 37 40 41 41 39 38 39 41 40 43 45 46 59 70 81 77 76 76 81 78 80 83 75 78 84 79 76 72 78
23 24 25 26 27 29 30 30 31 33 34 34 34 36 38 39 41 44 49 53 56 55 54 57 53 53 53 55 58 61 68 66 69 73 74 78 82 73 68 61 65 58 62
33 34 36 36 37 37 38 38 39 40 41 41 42 44 44 45 45 47 49 51 54 57 62 65 65 64 62 63 57 64 65 62 64 64 61 58 53 49 54 57 66 66 60
42 43 44 46 47 48 49 50 49 49 48 47 50 50 51 52 53 53 53 54 56 58 59 61 66 69 70 68 68 73 74 68 64 64 66 65 70 70 67 70 62 66 64
49 51 53 54 55 58 60 60 61 60 58 57 55 54 56 58 59 59 59 60 60 61 61 62 63 65 66 66 68 72 73 70 69 68 71 70 69 65 68 64 67 68 73
54 56 58 61 64 65 67 68 70 71 71 70 67 65 63 62 63 66 66 66 66 66 66 66 66 66 67 68 68 67 67 67 69 71 70 66 63 64 65 65 65 65 65
61 63 65 68 70 73 75 76 77 77 76 75 75 75 75 74 71 69 71 72 72 72 73 72 70 69 68 69 70 71 71 68 67 66 67 66 63 61 62 62 63 61 62
68 70 72 73 75 77 79 82 84 85 85 85 84 83 81 79 78 77 74 72 76 77 77 77 76 75 73 72 72 73 73 71 70 68 68 66 65 64 64 64 62 61 61
73 75 77 79 81 83 85 87 88 90 90 91 91 92 91 90 89 86 82 78 76 75 78 77 78 78 77 76 75 75 75 73 71 71 70 69 67 68 67 66 63 60 58
78 80 82 84 86 88 89 89 91 92 94 95 95 95 95 96 96 96 98 100 99 91 82 79 79 78 79 78 79 80 79 77 75 73 70 69 69 69 67 65 63 61 60
82 84 86 88 90 91 93 94 95 96 97 97 96 94 92 92 92 92 92 94 97 99 101 101 88 84 83 82 80 79 80 80 79 76 75 74 73 71 68 65 62 62 60
85 86 88 90 92 94 94 94 93 92 91 88 85 81 76 71 69 68 67 68 70 75 85 89 94 93 89 87 86 86 84 81 80 79 76 76 76 75 73 69 66 65 59
87 89 90 89 87 86 83 81 77 72 67 61 56 54 53 52 52 50 51 52 52 54 57 58 65 72 73 70 73 88 90 90 87 83 80 78 78 78 76 74 69 66 62
88 86 83 79 72 64 59 55 52 49 46 46 46 45 47 49 48 49 50 49 51 55 51 47 47 50 52 57 64 75 81 89 91 90 87 84 81 81 79 76 72 68 67
78 70 62 57 53 49 44 45 46 44 45 43 42 44 47 46 44 42 38 40 48 46 47 48 44 41 42 45 59 68 71 74 79 84 89 89 86 84 83 80 76 73 70
Wind_Direction
195 213 182 182 186 196 199 210 211 214 223 218 222 223 224 223 225 225 225 224 226 228 230 232 235 237 238 238 238 239 240 238 237 238 241 242 242 245 250 253 254 258 262
166 192 188 189 203 196 206 206 222 212 223 224 220 223 225 225 227 228 229 228 227 229 230 233 234 237 239 241 242 242 242 242 241 240 241 243 245 249 249 252 255 259 263
165 196 189 201 208 196 212 222 201 213 221 221 219 224 224 227 230 232 233 234 233 232 232 233 235 237 238 240 242 243 244 244 244 246 246 247 247 248 250 253 258 262 266
137 192 199 208 219 223 222 213 226 230 216 219 223 227 229 229 230 232 235 237 237 238 237 237 237 239 241 242 244 245 246 246 248 249 249 250 251 251 253 256 260 264 267
124 201 214 219 241 241 241 244 209 230 211 218 225 228 237 237 237 237 238 240 243 243 243 243 243 243 244 244 246 247 248 249 249 251 251 253 253 254 255 257 262 267 270
107 157 204 224 232 248 260 267 262 254 225 242 230 239 238 241 243 246 243 241 241 243 245 245 246 246 246 247 247 249 250 250 251 252 254 256 256 257 259 261 263 266 271
76 105 146 216 235 241 262 280 282 281 272 278 252 249 229 237 241 243 241 244 244 243 242 243 245 246 246 246 247 249 250 251 252 253 254 256 257 259 261 263 266 267 268
120 151 137 128 206 237 260 249 279 288 291 292 281 273 253 256 243 239 244 243 242 243 243 243 244 245 246 246 247 248 249 250 251 252 255 255 258 260 263 264 267 270 271
210 202 218 220 228 236 233 237 236 229 260 253 253 250 242 242 250 247 241 245 246 245 244 244 245 247 248 248 248 249 250 251 252 253 255 256 258 260 262 264 266 268 270
46 51 358 287 257 251 262 264 268 249 248 239 246 249 260 280 277 274 258 266 256 254 247 243 245 247 247 249 250 250 251 253 253 255 256 258 259 261 263 266 268 270 270
340 312 283 273 272 289 294 289 286 280 275 276 272 263 259 250 259 263 265 265 266 255 256 253 252 246 246 246 249 251 252 253 254 255 256 257 260 262 263 263 264 266 270
325 323 318 311 304 293 285 281 279 281 280 282 281 279 274 270 268 247 252 250 252 253 251 250 254 255 253 254 250 247 247 249 250 252 253 254 258 259 263 265 267 269 268
310 307 303 301 298 296 293 288 284 281 280 276 273 273 275 276 273 269 263 258 258 256 254 251 248 247 251 256 252 256 256 257 259 260 261 262 260 266 270 268 270 274 275
307 305 303 301 300 298 295 292 287 282 280 277 274 274 272 270 268 268 267 267 265 262 260 259 255 254 250 249 248 247 251 254 256 258 260 257 254 258 263 263 260 269 269
299 298 296 293 291 290 291 291 290 288 286 280 276 276 274 272 271 270 267 265 264 265 264 262 261 263 266 266 261 259 254 256 251 253 254 257 251 258 260 260 261 266 268
298 297 295 294 292 291 290 289 290 290 288 284 279 274 272 272 273 272 271 269 266 265 263 262 262 263 262 262 262 261 263 265 267 268 265 266 262 266 271 272 271 275 273
292 291 290 290 291 292 292 291 289 288 287 286 283 280 277 272 271 271 271 271 270 267 264 263 263 261 261 262 263 263 262 262 262 263 263 265 264 263 266 266 267 267 269
289 288 287 287 287 287 287 288 288 288 288 287 285 283 282 281 277 272 268 267 267 268 269 266 263 261 261 261 260 261 261 262 263 263 263 263 263 264 266 268 269 270 270
289 288 286 285 285 284 284 284 285 285 285 285 285 284 282 280 278 277 274 269 264 264 264 265 266 265 262 261 261 260 259 259 260 262 263 264 264 263 263 262 264 265 268
289 288 287 286 285 284 284 284 284 284 284 284 284 283 282 280 278 276 275 274 272 267 266 264 262 261 262 263 261 261 260 258 257 256 258 260 261 262 262 263 264 265 268
289 288 287 286 285 284 284 284 284 283 283 284 284 285 285 285 285 284 282 281 280 276 269 264 262 260 258 257 258 259 259 259 256 256 256 256 257 259 260 261 263 264 264
290 289 288 287 286 285 284 283 282 283 284 284 284 284 284 283 283 283 282 282 281 279 278 277 268 261 258 256 255 256 257 256 255 253 253 254 256 256 257 257 259 261 263
290 289 287 287 286 285 285 284 284 283 282 282 283 283 283 283 283 284 284 284 283 282 279 277 276 275 268 257 256 254 255 254 254 253 252 252 254 255 255 256 255 258 259
290 290 289 289 288 288 288 287 286 286 285 284 283 282 281 281 284 286 286 287 287 285 285 283 277 274 272 266 259 253 251 252 252 252 251 251 251 253 253 254 254 257 258
292 290 290 290 290 289 289 288 288 287 286 285 283 279 281 283 283 284 285 284 286 288 285 284 272 264 260 251 245 242 245 247 248 248 248 249 249 251 252 253 253 253 256
293 294 293 292 291 292 290 289 289 288 286 282 279 278 280 283 284 283 279 288 284 286 285 287 280 261 262 255 247 247 246 245 243 242 243 243 244 245 248 249 250 250 252
Height
5658 5662 5669 5683 5694 5706 5716 5723 5710 5728 5741 5750 5756 5761 5766 5771 5775 5779 5783 5787 5791 5795 5798 5801 5805 5808 5810 5812 5814 5817 5820 5821 5822 5824 5824 5825 5827 5827 5828 5829 5829 5829 5830
5658 5665 5671 5681 5689 5698 5709 5717 5718 5722 5732 5741 5749 5754 5759 5763 5767 5772 5776 5779 5783 5787 5791 5794 5797 5800 5802 5805 5808 5811 5812 5814 5816 5816 5817 5819 5820 5821 5820 5821 5821 5822 5823
5659 5666 5673 5679 5682 5695 5700 5704 5708 5715 5723 5732 5741 5746 5751 5755 5760 5765 5769 5773 5777 5779 5782 5785 5788 5791 5794 5796 5799 5802 5804 5806 5807 5809 5810 5810 5813 5812 5812 5813 5814 5814 5815
5665 5671 5676 5676 5684 5689 5694 5704 5711 5712 5719 5726 5734 5740 5745 5748 5751 5755 5759 5763 5767 5771 5774 5777 5780 5783 5786 5788 5791 5793 5795 5797 5799 5800 5802 5803 5803 5805 5805 5806 5806 5805 5805
5672 5675 5681 5682 5684 5687 5693 5698 5702 5712 5713 5721 5728 5733 5737 5741 5744 5747 5750 5754 5759 5763 5766 5769 5772 5774 5777 5779 5781 5784 5786 5787 5789 5791 5791 5793 5794 5796 5797 5796 5796 5796 5795
5677 5681 5686 5689 5691 5693 5696 5699 5702 5705 5710 5712 5719 5726 5729 5731 5734 5738 5741 5744 5747 5751 5754 5757 5760 5763 5766 5768 5770 5772 5774 5776 5778 5780 5781 5783 5784 5785 5785 5785 5787 5784 5786
5686 5687 5689 5694 5696 5700 5699 5700 5700 5701 5706 5710 5711 5713 5715 5718 5721 5723 5727 5731 5735 5738 5740 5743 5746 5749 5752 5755 5756 5760 5762 5764 5766 5767 5770 5770 5772 5771 5772 5772 5772 5774 5771
5691 5693 5692 5694 5697 5697 5698 5699 5698 5700 5701 5703 5704 5706 5706 5708 5709 5712 5715 5718 5721 5724 5726 5728 5731 5734 5737 5740 5743 5746 5748 5750 5752 5754 5755 5757 5758 5758 5758 5760 5758 5759 5759
5690 5690 5691 5691 5692 5692 5694 5698 5695 5696 5697 5699 5700 5699 5698 5700 5700 5701 5702 5706 5706 5709 5712 5715 5718 5720 5723 5725 5728 5731 5733 5735 5738 5740 5741 5742 5743 5744 5744 5744 5743 5742 5743
5690 5690 5689 5689 5691 5693 5692 5692 5692 5690 5692 5693 5690 5690 5693 5691 5691 5692 5691 5692 5693 5695 5696 5697 5701 5704 5706 5710 5712 5715 5717 5719 5721 5723 5725 5727 5728 5728 5729 5729 5728 5728 5727
5692 5690 5689 5688 5688 5687 5686 5686 5685 5685 5686 5685 5684 5683 5686 5684 5682 5682 5683 5682 5683 5684 5683 5682 5686 5687 5688 5691 5694 5698 5700 5703 5704 5706 5707 5709 5709 5712 5711 5713 5711 5710 5711
5682 5681 5680 5679 5680 5681 5682 5680 5678 5678 5678 5676 5675 5675 5675 5675 5675 5674 5672 5672 5671 5671 5672 5673 5673 5673 5673 5675 5676 5677 5680 5683 5685 5687 5689 5690 5691 5695 5694 5694 5696 5694 5692
5679 5677 5677 5677 5676 5675 5674 5672 5671 5670 5668 5665 5664 5664 5663 5661 5661 5662 5661 5661 5660 5659 5660 5661 5660 5659 5659 5660 5660 5662 5663 5666 5669 5670 5671 5674 5674 5676 5678 5678 5680 5678 5678
5673 5672 5671 5668 5666 5665 5664 5663 5662 5661 5658 5656 5655 5654 5651 5649 5648 5647 5646 5646 5645 5644 5643 5643 5644 5645 5645 5647 5646 5647 5647 5648 5652 5654 5656 5657 5660 5661 5661 5662 5664 5663 5663
5665 5663 5661 5659 5657 5655 5652 5651 5649 5647 5645 5645 5643 5640 5638 5638 5636 5634 5632 5631 5629 5629 5629 5629 5628 5629 5629 5629 5630 5630 5632 5633 5635 5638 5640 5642 5644 5643 5644 5644 5646 5647 5646
5655 5651 5648 5644 5642 5639 5636 5634 5631 5630 5628 5626 5624 5623 5622 5620 5619 5618 5617 5616 5614 5613 5613 5613 5612 5613 5613 5614 5614 5615 5615 5616 5618 5620 5621 5622 5624 5624 5625 5625 5627 5629 5628
5644 5640 5637 5633 5627 5622 5617 5613 5610 5607 5605 5603 5601 5601 5601 5601 5600 5598 5597 5596 5596 5596 5595 5595 5594 5596 5597 5596 5595 5595 5597 5600 5602 5603 5604 5604 5607 5608 5609 5609 5611 5615 5612
5629 5625 5620 5615 5611 5606 5601 5595 5590 5585 5581 5578 5577 5576 5575 5574 5574 5575 5575 5574 5573 5573 5573 5574 5574 5575 5578 5577 5576 5575 5577 5580 5583 5585 5586 5588 5590 5591 5591 5591 5593 5596 5598
5612 5608 5603 5598 5592 5586 5581 5575 5569 5563 5558 5553 5549 5547 5546 5547 5546 5546 5547 5548 5549 5549 5550 5550 5550 5552 5556 5555 5555 5555 5557 5562 5565 5565 5568 5570 5571 5572 5573 5575 5580 5581 5582
5593 5588 5582 5577 5571 5565 5559 5552 5545 5539 5533 5528 5522 5517 5514 5512 5513 5515 5517 5519 5520 5523 5523 5526 5526 5528 5531 5531 5532 5532 5535 5541 5545 5546 5548 5552 5554 5554 5555 5559 5561 5563 5565
5573 5566 5559 5552 5546 5541 5534 5528 5521 5515 5508 5501 5495 5490 5485 5481 5478 5477 5475 5476 5479 5487 5494 5498 5501 5504 5506 5509 5509 5508 5511 5518 5521 5526 5531 5533 5533 5535 5537 5541 5544 5544 5545
5549 5542 5534 5526 5519 5513 5506 5500 5494 5487 5482 5476 5469 5464 5459 5455 5452 5450 5448 5446 5445 5447 5448 5450 5467 5474 5478 5483 5486 5486 5487 5491 5496 5505 5509 5512 5513 5514 5518 5522 5527 5526 5530
5522 5514 5507 5498 5490 5483 5476 5471 5465 5459 5454 5449 5444 5440 5436 5432 5428 5426 5425 5423 5420 5417 5419 5420 5423 5429 5440 5450 5455 5458 5461 5466 5470 5481 5487 5489 5490 5492 5497 5502 5508 5508 5515
5497 5487 5478 5469 5461 5453 5446 5440 5436 5432 5429 5426 5422 5420 5418 5417 5414 5412 5408 5405 5401 5398 5396 5395 5395 5399 5405 5411 5418 5423 5428 5435 5441 5451 5459 5464 5466 5469 5474 5478 5488 5490 5496
5469 5460 5451 5443 5437 5431 5425 5420 5417 5414 5412 5409 5407 5405 5403 5401 5401 5399 5395 5391 5387 5380 5379 5378 5375 5375 5380 5383 5385 5389 5395 5403 5411 5418 5428 5436 5442 5445 5451 5460 5466 5473 5475
5442 5435 5429 5423 5418 5414 5410 5406 5403 5401 5399 5397 5394 5392 5390 5387 5385 5383 5383 5377 5373 5369 5364 5361 5358 5360 5361 5362 5362 5364 5369 5373 5379 5383 5398 5409 5416 5421 5428 5436 5443 5450 5455